GW1775 Weather Reports


Display with metric or nautical units.
time (UTC)temp
F
wind
direction
speed
MPH
gust
MPH
rain 1hr
in
rain 24hr
in
rain mn
in
humidity
%
barometer
mb
20260906120026 67 122 1.0 1.0 0.00 0.00 0.00 99 1018.3
20260906115525 67 85 0.0 1.0 0.00 0.00 0.00 99 1018.6
20260906115020 67 199 0.0 0.0 0.00 0.00 0.00 99 1018.4
20260906114514 67 147 3.0 3.0 0.00 0.00 0.00 99 1018.2
20260906114010 67 161 1.0 1.0 0.00 0.00 0.00 99 1018.2
20260906113509 66 109 0.0 1.0 0.00 0.00 0.00 99 1018.5
20260906113004 66 185 0.0 0.0 0.00 0.00 0.00 99 1018.5
20260906112458 66 203 0.0 0.0 0.00 0.00 0.00 99 1018.3
20260906111955 65 160 0.0 0.0 0.00 0.00 0.00 99 1018.5
20260906111449 66 168 0.0 0.0 0.00 0.00 0.00 99 1018.3
20260906110944 66 270 0.0 0.0 0.00 0.00 0.00 99 1018.4
20260906110439 66 135 0.0 0.0 0.00 0.00 0.00 99 1018.4
20260906105938 66 152 0.0 0.0 0.00 0.00 0.00 99 1018.5
20260906105434 66 152 0.0 0.0 0.00 0.00 0.00 99 1018.2
20260906104930 66 204 0.0 0.0 0.00 0.00 0.00 99 1018.5
20260906104428 66 174 0.0 0.0 0.00 0.00 0.00 99 1018.4
20260906103928 66 175 0.0 0.0 0.00 0.00 0.00 99 1018.4
20260906103426 66 195 0.0 0.0 0.00 0.00 0.00 99 1018.3
20260906102921 67 154 0.0 0.0 0.00 0.00 0.00 99 1018.1
20260906102421 67 165 0.0 0.0 0.00 0.00 0.00 99 1018.3
20260906101916 67 192 1.0 1.0 0.00 0.00 0.00 99 1017.9
20260906101411 67 87 0.0 1.0 0.00 0.00 0.00 99 1018.1
20260906100907 67 162 0.0 0.0 0.00 0.00 0.00 99 1018.2
20260906100406 67 190 0.0 0.0 0.00 0.00 0.00 99 1018.0
20260906095901 67 163 0.0 0.0 0.00 0.00 0.00 99 1017.9
20260906095356 67 113 1.0 1.0 0.00 0.00 0.00 99 1018.1
20260906094855 67 119 0.0 0.0 0.00 0.00 0.00 99 1018.0
20260906094351 67 154 0.0 0.0 0.00 0.00 0.00 99 1018.0
20260906093847 67 236 0.0 1.0 0.00 0.00 0.00 99 1018.1
20260906093343 67 170 0.0 0.0 0.00 0.00 0.00 99 1017.9
20260906092837 67 174 0.0 0.0 0.00 0.00 0.00 99 1017.6
20260906092331 68 174 1.0 1.0 0.00 0.00 0.00 99 1017.7
20260906091827 68 168 1.0 1.0 0.00 0.00 0.00 99 1017.5
20260906091323 68 183 0.0 0.0 0.00 0.00 0.00 99 1017.5
20260906090820 68 178 0.0 0.0 0.00 0.00 0.00 99 1017.4
20260906090318 68 186 1.0 2.0 0.00 0.00 0.00 99 1017.2
20260906085818 68 163 1.0 1.0 0.00 0.00 0.00 99 1017.3
20260906085311 68 167 1.0 1.0 0.00 0.00 0.00 99 1017.2
20260906084807 68 150 3.0 5.0 0.00 0.00 0.00 99 1017.3
20260906084306 68 129 2.0 2.0 0.00 0.00 0.00 99 1017.2
20260906083801 68 140 3.0 3.0 0.00 0.00 0.00 99 1017.3
20260906083257 68 173 0.0 1.0 0.00 0.00 0.00 99 1017.3
20260906082751 68 133 0.0 0.0 0.00 0.00 0.00 99 1017.2
20260906082246 68 115 2.0 3.0 0.00 0.00 0.00 99 1016.9
20260906081742 68 153 3.0 3.0 0.00 0.00 0.00 99 1017.1
20260906081237 68 27 0.0 1.0 0.00 0.00 0.00 99 1017.1
20260906080733 68 126 0.0 0.0 0.00 0.00 0.00 99 1017.0
20260906080230 68 90 0.0 1.0 0.00 0.00 0.00 99 1017.4
20260906075724 68 155 0.0 1.0 0.00 0.00 0.00 99 1017.2
20260906075224 68 150 1.0 1.0 0.00 0.00 0.00 99 1017.1
20260906074719 68 185 2.0 2.0 0.00 0.00 0.00 99 1017.2
20260906074218 68 144 0.0 1.0 0.00 0.00 0.00 99 1017.2
20260906073713 68 204 1.0 1.0 0.00 0.00 0.00 99 1017.3
20260906073208 68 120 2.0 2.0 0.00 0.00 0.00 99 1017.4
20260906072704 68 147 0.0 1.0 0.00 0.00 0.00 99 1017.3
20260906072159 68 117 0.0 1.0 0.00 0.00 0.00 99 1017.4
20260906071655 68 148 0.0 0.0 0.00 0.00 0.00 99 1017.3
20260906071154 68 180 1.0 1.0 0.00 0.00 0.00 99 1017.4
20260906070652 68 136 0.0 1.0 0.00 0.00 0.00 99 1017.6
20260906070147 69 155 0.0 0.0 0.00 0.00 0.00 99 1017.6
20260906065646 69 149 2.0 2.0 0.00 0.00 0.00 99 1017.7
20260906065142 69 183 1.0 1.0 0.00 0.00 0.00 99 1017.5
20260906064638 69 171 1.0 2.0 0.00 0.00 0.00 99 1017.6
20260906064133 69 150 2.0 3.0 0.00 0.00 0.00 99 1018.0
20260906063628 69 108 3.0 3.0 0.00 0.00 0.00 99 1017.7
20260906063124 69 188 1.0 1.0 0.00 0.00 0.00 99 1017.9
20260906062619 69 135 0.0 1.0 0.00 0.00 0.00 99 1017.6
20260906062118 69 150 0.0 1.0 0.00 0.00 0.00 99 1017.8
20260906061614 69 188 0.0 0.0 0.00 0.00 0.00 99 1017.9
20260906061114 69 276 0.0 0.0 0.00 0.00 0.00 99 1017.9
20260906060611 69 139 0.0 0.0 0.00 0.00 0.00 99 1018.1
20260906060108 69 103 0.0 1.0 0.00 0.00 0.00 99 1017.9
20260906055603 69 136 0.0 0.0 0.00 0.00 0.00 99 1018.0
20260906055058 70 184 1.0 1.0 0.00 0.00 0.00 99 1017.8
20260906054558 70 170 1.0 1.0 0.00 0.00 0.00 99 1017.8
20260906054054 70 149 0.0 0.0 0.00 0.00 0.00 99 1017.9
20260906053550 70 196 0.0 0.0 0.00 0.00 0.00 99 1017.7
20260906053045 70 141 1.0 1.0 0.00 0.00 0.00 99 1017.6
20260906052540 70 161 1.0 1.0 0.00 0.00 0.00 99 1017.8
20260906052038 70 174 1.0 1.0 0.00 0.00 0.00 99 1017.7
20260906051533 70 90 0.0 1.0 0.00 0.00 0.00 99 1017.7
20260906051028 70 156 1.0 1.0 0.00 0.00 0.00 99 1017.8
20260906050523 70 118 0.0 0.0 0.00 0.00 0.00 99 1017.7
20260906050018 70 177 0.0 0.0 0.00 0.01 0.01 99 1017.7
20260906045516 70 126 0.0 1.0 0.00 0.01 0.01 99 1017.6
20260906045012 71 45 2.0 2.0 0.00 0.01 0.01 99 1017.4
20260906044508 71 40 1.0 1.0 0.00 0.01 0.01 99 1017.5
20260906044003 71 110 0.0 0.0 0.00 0.01 0.01 99 1017.4
20260906043459 71 182 0.0 1.0 0.00 0.01 0.01 99 1017.4
20260906042954 71 98 1.0 1.0 0.00 0.01 0.01 99 1017.2
20260906042453 71 46 1.0 1.0 0.00 0.01 0.01 99 1017.7
20260906041953 71 24 0.0 1.0 0.00 0.01 0.01 99 1017.5
20260906041450 71 18 0.0 0.0 0.00 0.01 0.01 99 1017.3
20260906040949 71 325 0.0 0.0 0.00 0.01 0.01 99 1017.5
20260906040444 71 330 0.0 1.0 0.00 0.01 0.01 99 1017.5
20260906035939 71 127 0.0 0.0 0.00 0.01 0.01 99 1017.1
20260906035435 71 128 1.0 1.0 0.00 0.01 0.01 99 1017.4
20260906034930 71 177 0.0 0.0 0.00 0.01 0.01 99 1017.3
20260906034425 71 150 0.0 0.0 0.00 0.01 0.01 99 1017.4
20260906033920 71 171 1.0 1.0 0.00 0.01 0.01 99 1017.5
20260906033415 71 181 0.0 0.0 0.00 0.01 0.01 99 1017.5
20260906032910 71 214 0.0 0.0 0.00 0.01 0.01 99 1017.4
20260906032407 72 188 0.0 0.0 0.00 0.01 0.01 99 1017.4
20260906031901 72 179 0.0 0.0 0.00 0.01 0.01 99 1017.3
20260906031356 72 194 0.0 1.0 0.00 0.01 0.01 99 1017.3
20260906030851 72 130 0.0 0.0 0.00 0.01 0.01 99 1017.2
20260906030346 72 159 0.0 0.0 0.00 0.01 0.01 99 1017.2
20260906025841 72 88 0.0 0.0 0.00 0.01 0.01 99 1017.4
20260906025335 72 333 1.0 1.0 0.00 0.01 0.01 99 1017.3
20260906024834 72 235 0.0 0.0 0.00 0.01 0.01 99 1017.2
20260906024333 72 235 0.0 0.0 0.00 0.01 0.01 99 1017.1
20260906023829 72 242 0.0 0.0 0.00 0.01 0.01 99 1017.1
20260906023325 72 246 0.0 0.0 0.00 0.01 0.01 99 1017.1
20260906022820 72 284 0.0 0.0 0.00 0.01 0.01 98 1016.8
20260906022315 72 315 0.0 1.0 0.00 0.01 0.01 99 1017.2
20260906021811 72 265 0.0 0.0 0.00 0.01 0.01 98 1016.8
20260906021310 72 256 0.0 0.0 0.00 0.01 0.01 98 1016.5
20260906020804 73 256 0.0 0.0 0.00 0.01 0.01 98 1016.5
20260906020259 73 258 0.0 0.0 0.00 0.01 0.01 98 1016.5
20260906015759 73 329 0.0 1.0 0.00 0.01 0.01 98 1016.5
20260906015257 73 36 0.0 0.0 0.00 0.01 0.01 98 1016.2
20260906014752 73 130 0.0 0.0 0.00 0.01 0.01 98 1016.1
20260906014248 73 80 0.0 1.0 0.00 0.01 0.01 97 1016.2
20260906013743 73 210 0.0 0.0 0.00 0.01 0.01 97 1016.1
20260906013243 73 215 0.0 0.0 0.00 0.01 0.01 96 1016.3
20260906012739 73 156 0.0 0.0 0.00 0.01 0.01 96 1016.2
20260906012234 74 157 0.0 0.0 0.00 0.01 0.01 96 1015.9
20260906011729 74 156 0.0 0.0 0.00 0.01 0.01 96 1016.0
20260906011228 74 156 0.0 0.0 0.00 0.01 0.01 95 1016.1
20260906010724 74 158 0.0 0.0 0.00 0.01 0.01 95 1015.9
20260906010221 74 156 0.0 0.0 0.00 0.01 0.01 95 1015.9
20260906005721 75 156 0.0 0.0 0.00 0.01 0.01 94 1016.0
20260906005214 75 156 0.0 0.0 0.00 0.01 0.01 94 1015.8
20260906004713 75 156 0.0 1.0 0.00 0.01 0.01 93 1015.9
20260906004203 76 137 0.0 0.0 0.00 0.01 0.01 92 1015.9
20260906003658 76 167 0.0 0.0 0.00 0.01 0.01 91 1015.9
20260906003154 76 139 0.0 0.0 0.00 0.01 0.01 91 1015.7
20260906002654 77 139 0.0 0.0 0.00 0.01 0.01 91 1015.8
20260906002148 77 184 0.0 0.0 0.00 0.01 0.01 91 1015.8
20260906001644 77 143 0.0 1.0 0.00 0.01 0.01 90 1015.6
20260906001143 78 146 1.0 2.0 0.00 0.01 0.01 89 1015.7
20260906000639 78 158 1.0 1.0 0.00 0.01 0.01 89 1015.5
20260906000135 78 106 4.0 5.0 0.00 0.01 0.01 88 1015.7
20260905235633 79 136 5.0 7.0 0.00 0.01 0.01 88 1015.7
20260905235129 79 151 1.0 1.0 0.00 0.01 0.01 88 1015.6
20260905234624 80 189 0.0 0.0 0.00 0.01 0.01 87 1015.6
20260905234119 80 334 0.0 1.0 0.00 0.01 0.01 86 1015.6
20260905233614 79 156 0.0 0.0 0.00 0.01 0.01 87 1015.2
20260905233108 79 330 0.0 1.0 0.00 0.01 0.01 87 1015.4
20260905232604 80 146 3.0 5.0 0.00 0.01 0.01 86 1015.3
20260905232100 80 100 2.0 3.0 0.00 0.01 0.01 86 1014.9
20260905231554 80 110 2.0 3.0 0.00 0.01 0.01 86 1014.9
20260905231051 81 77 1.0 1.0 0.00 0.01 0.01 86 1015.3
20260905230550 80 314 1.0 1.0 0.00 0.01 0.01 87 1015.1
20260905230049 80 195 1.0 2.0 0.00 0.01 0.01 87 1014.9
20260905225548 80 87 0.0 1.0 0.00 0.01 0.01 87 1014.9
20260905225043 80 152 2.0 2.0 0.00 0.01 0.01 85 1015.1
20260905224538 81 61 1.0 1.0 0.00 0.01 0.01 85 1014.9
20260905224037 80 60 1.0 2.0 0.00 0.01 0.01 85 1014.9
20260905223535 80 129 1.0 2.0 0.00 0.01 0.01 86 1014.8
20260905223031 80 160 0.0 0.0 0.00 0.01 0.01 88 1014.9
20260905222531 79 136 0.0 1.0 0.00 0.01 0.01 87 1014.9
20260905222026 79 145 2.0 2.0 0.00 0.01 0.01 87 1015.0
20260905221522 79 200 3.0 3.0 0.00 0.01 0.01 86 1015.0
20260905221018 79 148 1.0 1.0 0.00 0.01 0.01 87 1015.1
20260905220514 79 54 1.0 1.0 0.00 0.01 0.01 87 1014.9
20260905220009 79 122 0.0 1.0 0.00 0.01 0.01 87 1014.9
20260905215504 79 147 1.0 1.0 0.00 0.01 0.01 87 1014.9
20260905214959 79 140 1.0 1.0 0.00 0.01 0.01 87 1015.0
20260905214450 79 102 1.0 2.0 0.00 0.01 0.01 87 1015.1
20260905213950 80 59 3.0 3.0 0.00 0.01 0.01 87 1015.2
20260905213446 80 129 2.0 2.0 0.00 0.01 0.01 86 1015.3
20260905212941 80 220 1.0 1.0 0.00 0.01 0.01 87 1015.1
20260905212436 79 36 1.0 2.0 0.00 0.01 0.01 87 1015.2
20260905211935 79 318 1.0 1.0 0.00 0.01 0.01 87 1015.3
20260905211431 79 73 1.0 1.0 0.00 0.01 0.01 88 1015.2
20260905210927 78 119 1.0 1.0 0.00 0.01 0.01 89 1015.0
20260905210427 78 138 1.0 1.0 0.00 0.01 0.01 89 1015.1
20260905205926 78 30 1.0 2.0 0.00 0.01 0.01 90 1014.9
20260905205421 77 95 1.0 1.0 0.00 0.01 0.01 90 1015.1
20260905204920 77 92 1.0 2.0 0.00 0.01 0.01 90 1015.3
20260905204417 77 100 2.0 3.0 0.00 0.01 0.01 90 1015.3
20260905203915 77 118 2.0 3.0 0.00 0.01 0.01 91 1015.4
20260905203411 77 47 2.0 2.0 0.00 0.01 0.01 91 1015.2
20260905202906 78 80 2.0 3.0 0.00 0.01 0.01 90 1015.4
20260905202401 78 73 2.0 3.0 0.00 0.01 0.01 90 1015.7
20260905201856 78 177 1.0 2.0 0.00 0.01 0.01 90 1015.7
20260905201352 78 159 0.0 1.0 0.00 0.01 0.01 89 1015.6
20260905200846 78 322 1.0 1.0 0.00 0.01 0.01 89 1015.8
20260905200342 79 55 5.0 5.0 0.00 0.01 0.01 88 1016.1
20260905195840 79 155 5.0 6.0 0.00 0.01 0.01 87 1015.9
20260905195335 79 37 3.0 7.0 0.00 0.01 0.01 88 1015.5
20260905194831 78 91 2.0 3.0 0.00 0.01 0.01 90 1015.2
20260905194330 78 134 3.0 3.0 0.00 0.01 0.01 89 1015.3
20260905193830 78 99 1.0 2.0 0.00 0.01 0.01 90 1015.5
20260905193325 78 78 2.0 3.0 0.00 0.01 0.01 91 1015.1
20260905192820 78 176 4.0 7.0 0.00 0.01 0.01 90 1014.9
20260905192316 78 142 3.0 3.0 0.00 0.01 0.01 90 1015.2
20260905191815 78 9 3.0 5.0 0.00 0.01 0.01 90 1015.6
20260905191314 78 84 4.0 6.0 0.00 0.01 0.01 90 1015.8
20260905190813 78 67 0.0 0.0 0.00 0.01 0.01 91 1016.3
20260905190307 78 47 1.0 1.0 0.00 0.01 0.01 91 1016.6
20260905185806 78 345 1.0 2.0 0.00 0.01 0.01 91 1016.9
20260905185305 78 54 3.0 3.0 0.00 0.01 0.01 91 1017.0
20260905184800 78 119 1.0 1.0 0.00 0.01 0.01 92 1017.1
20260905184254 78 347 1.0 1.0 0.00 0.01 0.01 91 1017.2
20260905183753 78 254 0.0 1.0 0.00 0.01 0.01 91 1017.5
20260905183248 78 249 0.0 1.0 0.00 0.01 0.01 91 1017.1
20260905182748 78 289 3.0 3.0 0.00 0.01 0.01 92 1017.3
20260905182242 78 106 1.0 1.0 0.00 0.01 0.01 94 1017.3
20260905181737 77 119 3.0 5.0 0.00 0.01 0.01 93 1017.1
20260905181236 77 171 0.0 1.0 0.00 0.01 0.01 95 1017.2
20260905180731 77 52 3.0 5.0 0.00 0.01 0.01 95 1016.9
20260905180226 76 88 2.0 2.0 0.00 0.01 0.01 96 1017.0
20260905175721 76 50 1.0 2.0 0.00 0.01 0.01 96 1017.1
20260905175215 76 187 1.0 1.0 0.00 0.01 0.01 97 1017.3
20260905174711 76 336 1.0 1.0 0.00 0.01 0.01 97 1017.3
20260905174206 76 299 1.0 1.0 0.00 0.01 0.01 97 1017.4
20260905173702 76 25 2.0 2.0 0.00 0.01 0.01 97 1017.6
20260905173158 76 12 0.0 1.0 0.00 0.01 0.01 98 1017.4
20260905172657 76 102 0.0 0.0 0.00 0.01 0.01 98 1017.6
20260905172152 76 329 3.0 3.0 0.00 0.01 0.01 98 1017.4
20260905171647 77 133 1.0 1.0 0.00 0.01 0.01 99 1017.5
20260905171143 77 289 1.0 2.0 0.00 0.01 0.01 99 1017.2
20260905170640 77 318 1.0 1.0 0.00 0.01 0.01 99 1017.1
20260905170135 76 99 1.0 1.0 0.00 0.01 0.01 99 1017.2
20260905165635 77 27 2.0 2.0 0.00 0.01 0.01 99 1017.2
20260905165130 77 88 1.0 1.0 0.00 0.01 0.01 99 1017.1
20260905164625 76 95 0.0 0.0 0.00 0.01 0.01 99 1017.3
20260905164124 76 123 1.0 1.0 0.00 0.01 0.01 99 1017.1
20260905163621 76 340 1.0 2.0 0.00 0.01 0.01 99 1017.0
20260905163117 76 265 1.0 1.0 0.00 0.01 0.01 99 1017.1
20260905162613 76 287 0.0 1.0 0.00 0.01 0.01 99 1017.3
20260905162112 77 43 2.0 2.0 0.00 0.01 0.01 99 1017.0
20260905161612 76 218 0.0 0.0 0.00 0.01 0.01 99 1016.9
20260905161109 76 54 2.0 3.0 0.00 0.01 0.01 99 1017.0
20260905160609 76 77 1.0 2.0 0.00 0.01 0.01 99 1017.2
20260905155558 76 238 0.0 0.0 0.00 0.01 0.01 99 1017.0
20260905155056 76 279 0.0 0.0 0.00 0.01 0.01 99 1016.9
20260905154551 76 99 0.0 0.0 0.00 0.01 0.01 99 1016.8
20260905154047 76 272 0.0 0.0 0.00 0.01 0.01 99 1016.9
20260905153543 76 127 1.0 2.0 0.00 0.01 0.01 99 1017.1
20260905153042 76 37 2.0 3.0 0.00 0.01 0.01 99 1016.9
20260905152537 76 326 1.0 1.0 0.00 0.01 0.01 99 1016.9
20260905152032 76 259 0.0 1.0 0.00 0.01 0.01 99 1017.1
20260905151527 76 29 0.0 0.0 0.00 0.01 0.01 99 1017.0
20260905151023 76 77 2.0 5.0 0.00 0.01 0.01 99 1016.8
20260905150518 75 92 1.0 1.0 0.00 0.01 0.01 99 1016.4
20260905150016 75 153 1.0 2.0 0.00 0.01 0.01 99 1016.6
20260905145509 76 90 1.0 3.0 0.00 0.01 0.01 99 1016.5
20260905145009 76 84 2.0 5.0 0.00 0.01 0.01 99 1016.4
20260905144504 76 16 0.0 0.0 0.00 0.01 0.01 99 1016.5
20260905144003 76 246 0.0 0.0 0.00 0.01 0.01 99 1016.4
20260905143502 75 202 0.0 0.0 0.00 0.01 0.01 99 1016.3
20260905142956 75 311 1.0 1.0 0.00 0.01 0.01 99 1016.1
20260905142455 75 165 1.0 1.0 0.00 0.01 0.01 99 1015.8
20260905141951 75 208 0.0 0.0 0.00 0.01 0.01 99 1016.1
20260905141446 75 111 0.0 0.0 0.00 0.01 0.01 99 1016.1
20260905140942 75 276 1.0 1.0 0.00 0.01 0.01 99 1015.8
20260905140437 74 45 0.0 0.0 0.00 0.01 0.01 99 1016.0
20260905135936 74 309 0.0 1.0 0.00 0.01 0.01 99 1016.0
20260905135432 74 282 0.0 0.0 0.00 0.01 0.01 99 1015.6
20260905134927 74 323 1.0 1.0 0.00 0.01 0.01 99 1015.9
20260905134426 74 89 0.0 0.0 0.00 0.01 0.01 99 1015.5
20260905133920 74 128 0.0 0.0 0.00 0.01 0.01 99 1015.8
20260905133415 73 207 0.0 0.0 0.00 0.01 0.01 99 1015.5
20260905132914 73 75 0.0 0.0 0.00 0.01 0.01 99 1015.7
20260905132410 73 319 0.0 0.0 0.00 0.01 0.01 99 1015.3
20260905131904 73 67 0.0 1.0 0.00 0.01 0.01 99 1015.5
20260905131400 73 97 0.0 1.0 0.00 0.01 0.01 99 1015.4
20260905130855 73 187 0.0 0.0 0.00 0.01 0.01 99 1015.4
20260905130354 73 97 0.0 0.0 0.00 0.01 0.01 99 1015.0
20260905125849 73 175 0.0 1.0 0.00 0.01 0.01 99 1015.1
20260905125344 72 148 1.0 1.0 0.00 0.01 0.01 99 1015.1
20260905124840 72 117 1.0 1.0 0.00 0.01 0.01 99 1015.0
20260905124336 73 130 1.0 2.0 0.00 0.01 0.01 99 1014.9
20260905123836 72 181 0.0 0.0 0.00 0.01 0.01 99 1014.7
20260905123333 72 86 1.0 1.0 0.00 0.01 0.01 99 1014.8
20260905122833 72 125 1.0 1.0 0.00 0.01 0.01 99 1015.0
20260905122332 72 71 1.0 1.0 0.00 0.01 0.01 99 1014.9
20260905121827 72 130 0.0 0.0 0.00 0.01 0.01 99 1014.7
20260905121324 72 194 0.0 0.0 0.00 0.01 0.01 99 1014.8
20260905120822 72 68 1.0 1.0 0.00 0.01 0.01 99 1014.6
20260905120317 72 300 0.0 0.0 0.00 0.01 0.01 99 1014.7